Starlink 5590

operational
NORAD ID: 55371 Int'l Des: 2023-013 Owner: SPXS Country: US Constellation: starlink
LEOCIRCULAR

About Starlink 5590

Description loading...

Live Position

Loading 3D Globe...

Upcoming Passes

Altitude History

Altitude vs Time

uPlot chart will show altitude changes over time

Two-Line Element Set

1 55371U 23013AS 25345.62028413 .00000077 00000-0 20779-4 0 9998
2 55371 43.0032 71.6751 0000872 277.6152 82.4591 15.02534465159233
Epoch: Dec 11, 2025 • Age: 9 hours

Current Status

Altitude 560.3 km
Velocity 7.58 km/s
Sub-Earth Point -8.39°S, 177.95°W
Launch Date Jan 26, 2023
Age 2.8 years
Type internet

Technical Details

Classification Payload
Mass 305.00 kg
Dry Mass 290.00 kg
Total Mass 305.00 kg
Length 0.20 m
Diameter 2.80 m
Span 9.00 m
Shape Box + pan
Manufacturer SPXS
Bus Type Starlink
Phase Status In Orbit
Owner/State SPXS/US

Large Constellations

Loading constellations...